STARLINK-1420, 45695

Orbit data source: Space-Track

STARLINK-1420, 45695 is a payload satellite owned by SpaceX/Seattle (US) in LEO that was launched on Thu, 04 Jun 2020 UTC via an FALCON 9 launch vehicle from the Air Force Eastern Test Range (AFETR). Payload-class satellites include a variety of spacecraft equipped with specific instruments for various scientific and technological missions. These include communications satellites like Starlink; space stations such as the ISS; scientific satellites like the Hubble; Earth observation satellites from companies like Planet Labs, Umbra, and HawkEye 360; GPS; miniature CubeSats for education and research; and military/defense satellites.

Loading next visibility...
Identifier
45695, 2020-035AQ
Orbit
LEO
Country
Flag of USUS
Related business
Manufacturer
SpaceX/Seattle
Mission
Operational Commercial Communications
Bus & Motor
STARLINK, Unknown motor
Mass
260 kg wet, ~248 kg dry
Launch date (UTC)
2020-06-04 (5 years ago)
Launch vehicle
FALCON 9
Launch site
Air Force Eastern Test Range (AFETR)
Object type
Payload
Rocket body
Debris
Shape & HBR
Box + 1 Pan, 10.1 m
Radar Cross Section
13.562 m², Large (>1 m²)

Expand to show TLE details & history
Last TLE update: 17 hours ago

TLE from 17 hours ago
0 STARLINK-1420
1 45695U 20035AQ  25287.32338290 -.00000429  00000-0 -99017-5 0  9991
2 45695  53.0549 333.6744 0001387  86.9137 273.2011 15.06385393297096
Epoch: 2025-10-14T07:45Z
TLE epoch observation values (Epoch: 2025-10-14T07:45:40.282Z)
Latitude
Longitude
-165.8569°
Altitude
548.082 km
Speed
7.589 km/s
True Right ascension
22h 14m 41s
True Declination
0° 00' 00"
Sunlit
Object was in full shadow at epoch
Visualization orbit readout
Latitude
Unknown
Longitude
Unknown
Altitude
Unknown
Speed
Unknown
Apparent Right ascension
Unknown
Apparent Declination
Unknown
Sunlit
N/A
Visualization observer readout
Local Sidereal Time
19:08:11
Azimuth
Unknown
Elevation
Unknown
Doppler factor
Unknown
Orbital elements
Apogee altitude
548.488 km
Perigee altitude
546.566 km
Semi-major axis
6,925.664 km
Eccentricity
0.00014
Inclination
53.0549°
RAAN
333.6744°
Arg. of periapsis
86.9137°
True anomaly
273.18523°
Mean anomaly
273.2011°
Eccentric anomaly
273.19317°
Mean motion
3.76575 °/min
Orbital period
95.6 mins
BSTAR
-0.0000099017
Loading maneuver chart data...
Computing Atmospheric mass density...
Loading historical data...
Loading historical data...
Loading historical data...
Loading historical data...
Loading historical data...
Loading historical data...
Loading historical data...

Documentation

Showing up to 5 results
|